www.pogodaiklimat.ru

Погода и климат >> Архив погоды >> Россия >> Нижегородская область >> Нижний Новгород


АРХИВ ПОГОДЫ в Нижнем Новгороде

Время (UTC), дата Ветер
(напр.,м/с)
 
Видим.   Явления Облачность Т
(С)
Тd
(С)
f
(%)
Тe
(С)
Тes
(С)
Комфортность P
(гПа)
Po
(гПа)
Тmin
(С)
Tmax
(С)
R
(мм)
R24
(мм)
S
(см)
15 15.01 ЮВ 2-5
{8}
4000 м слаб. снег 10/8 300 м
[Frnb As op]
-2.1 -3.3 91 -6 -6 по сезону 996.8 977.3 -2.1 0.3
18 15.01 ЮЗ 2-7
{7}
4000 м слаб. крупа 9/9 300 м
[Cb cap]
-0.4 -1.3 94 -4 -4 тепло 997.8 978.3
21 15.01 ЮЗ 2-6
{8}
10 км {ливн. осадки} 6/0
[Ac trans]
-2.0 -5.8 75 -6 -6 тепло 999.6 980.1
00 16.01 Ю 2-4
{6}
10 км {ливн. осадки} 10/10 600 м
[Sc]
-3.9 -6.5 82 -8 -8 по сезону 1000.3 980.5
03 16.01 Ю 1-2
{4}
10 км 10/0
[Ac As]
-4.6 -6.6 86 -7 -7 по сезону 1000.1 980.3 -4.6 0.0 37
06 16.01 ЮВ 1-2
{2}
3000 м снег 10/10 200 м
[Frnb Ns]
-4.7 -6.0 91 -7 -7 тепло 999.0 979.2 -4.7
09 16.01 З 1-2
{2}
2800 м снег 10/10 200 м
[Frnb Ns]
-4.3 -5.9 89 -7 -7 по сезону 997.9 978.1
12 16.01 З 1-2
{2}
4000 м слаб. снег 10/10 200 м
[Frnb Ns]
-4.2 -5.4 91 -7 -7 по сезону 996.4 976.7
15 16.01 СЗ 1-4
{4}
4000 м слаб. снег 10/8 300 м
[Frnb As op]
-4.8 -5.8 93 -7 -7 по сезону 996.1 976.4 -4.0 3
18 16.01 З 2-5
{5}
10 км {снег} 9/8 600 м
[St Ac trans]
-6.1 -7.6 89 -11 -11 по сезону 997.5 977.6
21 16.01 СЗ 3-6
{8}
10 км 10/10 600 м
[Sc]
-8.8 -9.9 92 -15 -15 по сезону 1000.2 980.1
00 17.01 З 2-4
{8}
10 км 10/10 600 м
[Sc]
-8.3 -9.3 92 -13 -13 по сезону 1002.1 982.0
03 17.01 ЮЗ 1-4
{6}
10 км слаб. снег 10/10 300 м
[Frnb]
-8.7 -9.8 92 -11 -11 по сезону 1003.5 983.3 -8.8 0.0 39
06 17.01 ЮЗ 2-6
{7}
4000 м слаб. снег 10/8 300 м
[Frnb As op]
-8.1 -10.4 83 -13 -13 по сезону 1004.8 984.6
09 17.01 ЮЗ 2-6
{7}
10 км слаб. снег 9/8 300 м
[Frnb Ac As]
-6.4 -8.9 82 -11 -11 по сезону 1005.4 985.4
12 17.01 ЮЗ 2-7
{9}
10 км слаб. снег 10/8 300 м
[Frnb Ac As]
-5.2 -7.7 83 -9 -9 по сезону 1004.8 984.8
15 17.01 Ю 2-6
{8}
10 км 9/8 600 м
[Sc Ac trans]
-5.0 -7.8 81 -9 -9 по сезону 1003.6 983.7 -4.9 0.2
18 17.01 ЮЗ 3-8
{9}
4000 м слаб. снег 10/10 300 м
[Frnb]
-4.9 -7.7 81 -10 -10 по сезону 1001.3 981.5
21 17.01 ЮЗ 3-6
{11}
4000 м слаб. снег {метель} 10/10 300 м
[Frnb]
-5.2 -6.6 90 -11 -11 по сезону 999.3 979.5
00 18.01 ЮЗ 3-9
{11}
10 км сильный позёмок 10/10 600 м
[Sc]
-4.0 -6.2 85 -9 -9 по сезону 997.5 977.7
03 18.01 ЮЗ 3-9
{11}
4000 м сильный позёмок 10/10 300 м
[Frnb]
-3.5 -4.6 92 -9 -9 по сезону 997.4 977.7 -5.4 3 37
06 18.01 ЮЗ 3-7
{11}
10 км позёмок {снег} 10/10 600 м
[Sc]
-1.9 -4.0 86 -7 -7 тепло 998.9 979.3
09 18.01 ЮЗ 2-7
{10}
10 км {снег, метель} 10/10 300 м
[Frnb]
-0.8 -3.3 83 -5 -5 тепло 1000.6 981.1
12 18.01 ЮЗ 2-6
{10}
10 км {снег, метель} 10/10 300 м
[Sc]
+0.2 -2.7 81 -3 -3 тепло 1001.7 982.2
15 18.01 ЮЗ 2-7
{8}
10 км 10/10 300 м
[Sc]
-0.1 -2.7 83 -4 -4 тепло 1003.2 983.6 +0.3 0.0
18 18.01 ЮЗ 2-7
{7}
10 км 6/6 1000 м
[Sc]
-1.8 -4.2 84 -6 -6 тепло 1002.9 983.2
21 18.01 ЮЗ 3-8
{9}
4000 м слаб. снег 10/10 300 м
[Frnb]
-1.4 -1.6 99 -7 -7 по сезону 1000.4 980.8
00 19.01 ЮЗ 3-8
{10}
1000 м снег 10/10 200 м
[Frnb Ns]
-0.4 -0.7 98 -5 -5 тепло 999.1 979.6
03 19.01 ЮЗ 2-7
{10}
10 км {снег} 10/10 300 м
[Frnb]
+0.8 -1.2 86 -3 -3 тепло 999.8 980.4 -2.1 2 39
06 19.01 СЗ 3-9
{10}
4000 м слаб. снег 10/10 200 м
[Frnb]
-4.2 -4.7 96 -10 -10 по сезону 1003.6 983.7 -4.2
09 19.01 З 3-6
{8}
10 км {снег} 8/3 600 м
[Sc Ac trans Ci fib]
-5.6 -9.0 77 -11 -11 по сезону 1007.1 987.1
12 19.01 З 2-4
{6}
10 км {снег} ясно -5.4 -10.0 70 -9 -9 по сезону 1008.2 988.1
15 19.01 ЮЗ 1-3
{6}
10 км 8/5 600 м
[Sc Ac trans Ci fib]
-5.8 -9.7 74 -8 -8 по сезону 1008.8 988.7 +0.8 0.9
18 19.01 З 1-3
{4}
10 км 10/6 600 м
[Sc Ac trans Ci fib]
-5.2 -8.9 75 -7 -7 по сезону 1009.1 989.1
21 19.01 ЮЗ 1-2
{5}
4000 м слаб. снег 10/8 600 м
[Sc As op]
-5.9 -8.1 84 -8 -8 по сезону 1009.9 989.8
00 20.01 ЮЗ 1-3
{5}
4000 м слаб. снег 10/10 300 м
[Sc]
-6.5 -8.1 88 -9 -9 по сезону 1010.5 990.4
03 20.01 З 2-5
{8}
10 км {снег} 8/8 300 м
[St]
-9.0 -11.5 82 -13 -13 по сезону 1012.7 992.4 -9.1 1 41
06 20.01 З 1-3
{7}
10 км {снег} 8/8 300 м
[St Ac trans]
-10.4 -12.4 85 -13 -13 по сезону 1014.2 993.7 -10.5
09 20.01 ЮЗ 2-5
{5}
10 км 6/0
[Ac trans Ci fib]
-8.3 -11.5 78 -13 -12 по сезону 1013.8 993.4
12 20.01 Ю 1-3
{5}
10 км 4/0
[Ci fib]
-6.6 -10.7 73 -9 -9 по сезону 1011.4 991.3
15 20.01 ЮЗ 2-5
{7}
10 км 9/0
[Ac trans]
-6.4 -10.5 73 -11 -11 по сезону 1010.2 990.1 -6.2
18 20.01 ЮЗ 2-5
{8}
2000 м снег 10/10 200 м
[Frnb Ns]
-5.8 -6.9 92 -10 -10 по сезону 1009.1 989.0
21 20.01 ЮЗ 1-4
{10}
2000 м снег {метель} 10/10 200 м
[Frnb Ns]
-6.0 -7.1 92 -8 -8 по сезону 1008.8 988.7
00 21.01 ЮЗ 2-7
{8}
4000 м слаб. снег {метель} 10/10 200 м
[Frnb Ns]
-6.7 -8.7 86 -11 -11 по сезону 1008.2 988.1
03 21.01 З 1-4
{7}
10 км {снег} 10/10 300 м
[Sc]
-6.4 -8.3 86 -9 -9 по сезону 1007.7 987.6 -6.7 2 42
06 21.01 ЮЗ 2-5
{6}
3000 м слаб. снег 10/8 300 м
[Frnb Ac As]
-6.6 -8.2 88 -11 -11 по сезону 1007.6 987.5
09 21.01 ЮЗ 1-4
{8}
4000 м слаб. снег 10/8 300 м
[Frnb Ac trans]
-6.2 -7.0 94 -9 -9 по сезону 1007.6 987.5
12 21.01 ЮЗ 2-5
{6}
10 км в посл. час ливневой дождь 6/3 600 м
[Cb cap Ac trans Ci fib]
-6.7 -9.1 83 -11 -11 по сезону 1006.8 986.8
15 21.01 З 1-3
{5}
10 км {ливн. осадки} 9/8 600 м
[Sc Ac trans]
-7.6 -10.6 79 -10 -10 по сезону 1006.9 986.8 -6.1 0.7
18 21.01 З 2-4
{5}
10 км {ливн. осадки} 8/0
[Cc]
-9.7 -13.8 72 -14 -14 по сезону 1007.3 987.0
21 21.01 З 1-4
{6}
10 км 8/0
[Cc]
-12.2 -14.9 80 -14 -14 по сезону 1008.1 987.6
00 22.01 З 2-5
{7}
10 км 10/8 600 м
[Sc Ci]
-14.0 -16.0 85 -19 -19 прохладно 1009.0 988.3
03 22.01 З 2-5
{6}
4000 м снежные зёрна 9/9 300 м
[St]
-15.5 -16.8 90 -21 -21 холодно 1010.2 989.4 -15.6 0.0 43
06 22.01 З 2-4
{7}
4000 м слаб. снег 10/3 300 м
[Frnb Ac As Ci fib]
-17.5 -18.7 90 -23 -23 очень
холодно
1011.7 990.7 -17.5
09 22.01 З 1-3
{5}
4000 м слаб. снег 10/5 300 м
[Frnb As op]
-16.0 -17.9 85 -19 -18 холодно 1013.2 992.3
12 22.01 З 2-4
{5}
10 км 4/3 300 м
[St Ac trans]
-15.1 -17.0 85 -20 -20 холодно 1014.3 993.4

 

Местоположение метеостанции Нижний Новгород (Нижегородская область, Россия): широта 56.27 долгота 44.00 высота над уровнем моря 157 м.

В архиве по умолчанию представлена погода в Нижнем Новгороде за последнюю неделю. Архивные данные за месяц целиком и за предыдущие месяцы, начиная с января 2011 года, Вы можете получить, выбрав интересующий диапазон дат из раскрывающегося списка и нажав кнопку "Ввод!".


*Определитесь, кто Вы:
робот инопланетянин человек

Внимание! Время в таблицах - всемирное. Для получения местного времени необходимо прибавить поправку, которая равна 3 ч.

Смотрите также архив погоды в соседних городах и на ближайших метеорологических станциях:

Погода в Нижнем Новгороде аэропорт (Нижегородская область, Россия) (15 км)
Погода в Дальнем Константиново (Нижегородская область, Россия) (53 км)
Погода в Балахне (Нижегородская область, Россия) (54 км)
Погода в Волжской ГМО (Нижегородская область, Россия) (57 км)
Погода в Семенове (Нижегородская область, Россия) (60 км)
Погода в Павлово (Нижегородская область, Россия) (70 км)
Погода в Лысково (Нижегородская область, Россия) (70 км)
Погода в Арзамасе (Нижегородская область, Россия) (101 км)
Погода в Воскресенском (Нижегородская область, Россия) (106 км)
Погода в Вязниках (Владимирская область, Россия) (113 км)

Пояснения к столбцам:

Ветер - указаны скорость ветра в м/с - средняя за 10 мин, порывы в срок и между сроками (в фигурных скобках) и направление, откуда дует ветер: С - северный, СВ - северо-восточный, В - восточный, ЮВ - юго-восточный, Ю - южный, ЮЗ - юго-западный, З - западный, СЗ - северо-западный.
Видимость - горизонтальная дальность видимости в метрах или километрах. При видимости от 1 до 10 км при отсутствии осадков обычно наблюдается дымка, при ухудшении видимости до 1 км и менее - туман. В сухую погоду видимость может ухудшаться дымом, пылью или мглою.
Явления - указаны атмосферные явления, наблюдавшиеся в срок или в последний час перед сроком; фигурными скобками обозначены явления, наблюдавшиеся между сроками (за 1-3 часа до срока); квадратными скобками обозначены град или гололедные отложения с указанием их диаметра в мм.
Облачность - указаны через наклонную черту общая и нижняя облачность в баллах и высота нижней границы облаков в метрах; квадратными скобками обозначены формы облаков: Ci - перистые, Cs - перисто-слоистые, Cc - перисто-кучевые, Ac - высококучевые, As - высокослоистые, Sc - слоисто-кучевые, Ns - слоисто-дождевые, Cu - кучевые, Cb - кучево-дождевые. Подробнее классификацию облаков см. в Атласе облаков (PDF).
T - Температура воздуха - температура, измеренная на высоте 2 м над землей.
Td - Температура точки росы - температура, при понижении до которой содержащийся в воздухе водяной пар достигнет насыщения.
f - Относительная влажность воздуха - влажноcть воздуха, измеренная на высоте 2 м над землей.
Te - Эффективная температура - температура, которую ощущает одетый по сезону человек в тени. Характеристика душности погоды. При расчете учитывается влияние влажности воздуха и скорости ветра на теплоощущения человека.
Tes - Эффективная температура на солнце - температура, которую ощущает человек, с поправкой на солнечный нагрев. Характеристика знойности погоды. Зависит от высоты солнца над горизонтом, облачности и скорости ветра. Ночью, в пасмурную погоду, а также при ветре 12 м/с и более поправка равна нулю.
P - Атмосферное давление - приведенное к уровню моря атмосферное давление.
Po - Атмосферное давление - измеренное на уровне метеостанции атмосферное давление.
Tmin - Минимальная температура - минимум температуры воздуха на высоте 2 м над землей.
Tmax - Максимальная температура - максимум температуры воздуха на высоте 2 м над землей.
R - Количество осадков - Количество выпавших осадков за период времени, мм. При наведении курсора мыши на число - период времени, за который выпало указанное количество осадков.
R24 - Количество осадков - Количество выпавших осадков за 24 часа, мм.
S - Снежный покров - Высота снежного покрова, см. При наведении курсора мыши на число - состояние снежного покрова и степень покрытия местности в баллах.